Location: Newark
(58.8333°N, 23.5833°E)
Time: 03:41:30
(UTC+00:00)

Vanguard 2 - Pass Details

Date: 29 November 2019
Orbit: 553 x 2938 km, 32.9° (Epoch: 06 December)

Event Time Altitude Azimuth Distance (km) Brightness Sun altitude
Rises 02:48:01 0° 206° (SSW) 6,736 12.1 -29.2°
Reaches altitude 10° 02:55:46 10° 187° (S) 5,481 11.7 -28.2°
Maximum altitude 03:02:47 14° 160° (SSE) 4,727 11.7 -27.3°
Drops below altitude 10° 03:08:53 10° 133° (SE) 4,661 12.0 -26.5°
Sets 03:14:22 0° 112° (ESE) 5,174 12.8 -25.8°
